sat.trackr.live / text

‹ back to catalog

SAUDICOMSAT 1

NORAD 28369 · 2004-025D

PAYLOAD ACTIVE UNKNOWN

§ Identity

Operator
Country
SAUD
Launch date
2004-06-29
Launch site
TYMSC
Launch vehicle
Mass (kg)
RCS (m²)
0.05

External: N2YO · Heavens-Above · Gunter

§ Orbital elements

Epoch: 2026-09-19T17:55:24.859200Z

Period
98.93 min
Inclination
98.5791°
Eccentricity
0.0033337
Mean motion
14.55528038 rev/d
Perigee alt
684.0 km
Apogee alt
731.3 km
Semi-major
7,085.8 km
B*
5.4082e-5
RAAN
275.4429°
Arg perigee
93.7691°
Mean anomaly
266.7319°
Rev number
17,788

§ Raw data

SAUDICOMSAT 11 28369U 04025D   26262.74681550  .00000188  00000+0  54082-4 0  99922 28369  98.5791 275.4429 0033337  93.7691 266.7319 14.55528038177882

JSON: /api/v1/satellites/28369 · /tle

For live sub-satellite position, see the globe view (requires WebGL).

§ Visibility from observer

Set your observer location to see the next 7 days of passes ≥ 10°. The values pass through the URL so the page stays shareable.

No JS? Fill the form by hand. The geolocation button needs JavaScript.